When you browse on this site, cookies collect data to enhance your experience and personalize the content and advertising you see.
Visit our Privacy Policy to learn more. By continuing to use the site, you agree to this use of cookies and data.
  • în România
  • Lista ţărilor
  • Pe 7 zile
  • Temperatura apei
  • Hartă satelitară
  • Meteo pe hartă
  • Widget-uri
  • user-avatar
    Intrare

    Meteo pe oră la Acerenza

    Astăzi, 17 Februarie, Duminică

    Timp Temperatura Precipitaţii Vânt Presiune Umiditate
    00:00 +2°C° 0 mm 1 m/s 707 mmHg 87%
    01:00 +1°C° 0 mm 1 m/s 707 mmHg 82%
    02:00 +1°C° 0 mm 1 m/s 707 mmHg 78%
    03:00 +2°C° 0 mm 1 m/s 707 mmHg 75%
    04:00 +2°C° 0 mm 1 m/s 707 mmHg 71%
    05:00 +2°C° 0 mm 1 m/s 707 mmHg 68%
    06:00 +2°C° 0 mm 1 m/s 707 mmHg 64%
    07:00 +2°C° 0 mm 1 m/s 707 mmHg 61%
    08:00 +4°C° 0 mm 1 m/s 707 mmHg 55%
    09:00 +7°C° 0 mm 1 m/s 708 mmHg 49%
    10:00 +10°C° 0 mm 1 m/s 708 mmHg 43%
    11:00 +11°C° 0 mm 1 m/s 709 mmHg 40%
    12:00 +12°C° 0 mm 2 m/s 709 mmHg 38%
    13:00 +13°C° 0 mm 2 m/s 709 mmHg 35%
    14:00 +13°C° 0 mm 2 m/s 709 mmHg 39%
    15:00 +13°C° 0 mm 2 m/s 708 mmHg 43%
    16:00 +12°C° 0 mm 2 m/s 708 mmHg 47%
    17:00 +9°C° 0 mm 2 m/s 708 mmHg 52%
    18:00 +8°C° 0 mm 1 m/s 707 mmHg 58%
    19:00 +6°C° 0 mm 1 m/s 707 mmHg 64%
    20:00 +5°C° 0 mm 1 m/s 707 mmHg 65%
    21:00 +5°C° 0 mm 1 m/s 707 mmHg 65%
    22:00 +4°C° 0 mm 1 m/s 707 mmHg 66%
    23:00 +3°C° 0 mm 2 m/s 706 mmHg 66%

    Mâine, 18 Februarie, Luni

    Timp Temperatura Precipitaţii Vânt Presiune Umiditate
    00:00 +3°C° 0 mm 2 m/s 706 mmHg 65%
    01:00 +3°C° 0 mm 2 m/s 706 mmHg 65%
    02:00 +3°C° 0 mm 2 m/s 706 mmHg 65%
    03:00 +2°C° 0 mm 2 m/s 706 mmHg 64%
    04:00 +2°C° 0 mm 2 m/s 705 mmHg 64%
    05:00 +2°C° 0 mm 2 m/s 705 mmHg 63%
    06:00 +2°C° 0 mm 2 m/s 705 mmHg 63%
    07:00 +2°C° 0 mm 2 m/s 705 mmHg 62%
    08:00 +6°C° 0 mm 1 m/s 706 mmHg 56%
    09:00 +8°C° 0 mm 1 m/s 706 mmHg 50%
    10:00 +11°C° 0 mm 1 m/s 707 mmHg 44%
    11:00 +12°C° 0 mm 1 m/s 707 mmHg 41%
    12:00 +13°C° 0 mm 1 m/s 707 mmHg 38%
    13:00 +14°C° 0 mm 1 m/s 707 mmHg 35%
    14:00 +14°C° 0 mm 1 m/s 707 mmHg 39%
    15:00 +14°C° 0 mm 1 m/s 707 mmHg 42%
    16:00 +14°C° 0 mm 2 m/s 706 mmHg 46%
    17:00 +11°C° 0 mm 1 m/s 706 mmHg 53%
    18:00 +9°C° 0 mm 1 m/s 705 mmHg 60%
    19:00 +6°C° 0 mm 0 m/s 705 mmHg 68%
    20:00 +6°C° 0 mm 1 m/s 705 mmHg 70%
    21:00 +6°C° 0 mm 1 m/s 705 mmHg 72%
    22:00 +5°C° 0 mm 1 m/s 705 mmHg 74%
    23:00 +5°C° 0 mm 1 m/s 705 mmHg 75%

    Poimâine, 19 Februarie, Marţi

    Timp Temperatura Precipitaţii Vânt Presiune Umiditate
    00:00 +5°C° 0 mm 1 m/s 705 mmHg 77%
    01:00 +5°C° 0 mm 1 m/s 705 mmHg 78%
    02:00 +4°C° 0 mm 1 m/s 704 mmHg 79%
    03:00 +4°C° 0 mm 1 m/s 704 mmHg 79%
    04:00 +4°C° 0 mm 1 m/s 704 mmHg 80%
    05:00 +4°C° 0 mm 1 m/s 704 mmHg 80%
    06:00 +4°C° 0 mm 1 m/s 704 mmHg 80%
    07:00 +4°C° 0 mm 1 m/s 704 mmHg 79%
    08:00 +6°C° 0 mm 1 m/s 705 mmHg 71%
    09:00 +9°C° 0 mm 1 m/s 706 mmHg 63%
    10:00 +11°C° 0 mm 1 m/s 706 mmHg 55%
    11:00 +12°C° 0 mm 1 m/s 706 mmHg 51%
    12:00 +13°C° 0 mm 1 m/s 706 mmHg 47%
    13:00 +14°C° 0 mm 1 m/s 706 mmHg 42%
    14:00 +14°C° 0 mm 1 m/s 706 mmHg 44%
    15:00 +14°C° 0 mm 1 m/s 706 mmHg 46%
    16:00 +13°C° 0 mm 2 m/s 706 mmHg 48%
    17:00 +11°C° 0 mm 1 m/s 705 mmHg 57%
    18:00 +9°C° 0 mm 1 m/s 705 mmHg 66%
    19:00 +6°C° 0 mm 0 m/s 705 mmHg 75%
    20:00 +6°C° 0 mm 1 m/s 705 mmHg 76%
    21:00 +6°C° 0 mm 1 m/s 705 mmHg 78%
    22:00 +6°C° 0 mm 1 m/s 705 mmHg 79%
    23:00 +5°C° 0 mm 1 m/s 705 mmHg 79%

    20 Februarie, Miercuri

    Timp Temperatura Precipitaţii Vânt Presiune Umiditate
    00:00 +5°C° 0 mm 1 m/s 705 mmHg 78%
    01:00 +5°C° 0 mm 1 m/s 704 mmHg 78%
    02:00 +5°C° 0 mm 1 m/s 704 mmHg 78%
    03:00 +4°C° 0 mm 1 m/s 704 mmHg 77%
    04:00 +4°C° 0 mm 1 m/s 704 mmHg 77%
    05:00 +4°C° 0 mm 1 m/s 704 mmHg 77%
    06:00 +4°C° 0 mm 1 m/s 704 mmHg 76%
    07:00 +4°C° 0 mm 1 m/s 704 mmHg 76%
    08:00 +6°C° 0 mm 1 m/s 705 mmHg 69%
    09:00 +8°C° 0 mm 1 m/s 706 mmHg 63%
    10:00 +10°C° 0 mm 0 m/s 707 mmHg 57%
    11:00 +12°C° 0 mm 1 m/s 707 mmHg 54%
    12:00 +13°C° 0 mm 1 m/s 707 mmHg 52%
    13:00 +13°C° 0 mm 2 m/s 707 mmHg 49%
    14:00 +13°C° 0 mm 2 m/s 707 mmHg 52%
    15:00 +12°C° 0 mm 3 m/s 707 mmHg 54%
    16:00 +11°C° 0 mm 3 m/s 706 mmHg 57%
    17:00 +9°C° 0 mm 2 m/s 706 mmHg 64%
    18:00 +8°C° 0 mm 1 m/s 706 mmHg 72%
    19:00 +6°C° 0 mm 1 m/s 706 mmHg 80%
    20:00 +5°C° 0 mm 0 m/s 706 mmHg 80%
    21:00 +4°C° 0 mm 0 m/s 706 mmHg 81%
    22:00 +4°C° 0 mm 0 m/s 706 mmHg 82%
    23:00 +4°C° 0 mm 0 m/s 706 mmHg 82%

    21 Februarie, Joi

    Timp Temperatura Precipitaţii Vânt Presiune Umiditate
    00:00 +4°C° 0 mm 1 m/s 706 mmHg 82%
    01:00 +4°C° 0 mm 1 m/s 706 mmHg 83%
    02:00 +4°C° 0 mm 1 m/s 706 mmHg 84%
    03:00 +4°C° 0 mm 1 m/s 706 mmHg 84%
    04:00 +4°C° 0 mm 1 m/s 706 mmHg 85%
    05:00 +3°C° 0 mm 1 m/s 706 mmHg 84%
    06:00 +3°C° 0 mm 1 m/s 706 mmHg 83%
    07:00 +3°C° 0 mm 1 m/s 706 mmHg 82%
    08:00 +5°C° 0 mm 1 m/s 707 mmHg 73%
    09:00 +8°C° 0 mm 1 m/s 707 mmHg 63%
    10:00 +10°C° 0 mm 1 m/s 708 mmHg 54%
    11:00 +10°C° 0 mm 2 m/s 708 mmHg 52%
    12:00 +12°C° 0 mm 2 m/s 708 mmHg 50%
    13:00 +13°C° 0 mm 2 m/s 708 mmHg 48%
    14:00 +12°C° 0 mm 2 m/s 708 mmHg 51%
    15:00 +11°C° 0 mm 3 m/s 708 mmHg 55%
    16:00 +11°C° 0 mm 3 m/s 708 mmHg 58%
    17:00 +9°C° 0 mm 2 m/s 707 mmHg 68%
    18:00 +8°C° 0 mm 1 m/s 707 mmHg 77%
    19:00 +6°C° 0 mm 1 m/s 707 mmHg 86%
    20:00 +6°C° 0 mm 1 m/s 707 mmHg 88%
    21:00 +5°C° 0 mm 1 m/s 707 mmHg 89%
    22:00 +5°C° 0 mm 1 m/s 707 mmHg 91%
    23:00 +5°C° 0 mm 1 m/s 707 mmHg 90%

    22 Februarie, Vineri

    Timp Temperatura Precipitaţii Vânt Presiune Umiditate
    00:00 +4°C° 0 mm 1 m/s 707 mmHg 90%
    01:00 +4°C° 0 mm 1 m/s 707 mmHg 90%
    02:00 +4°C° 0 mm 1 m/s 706 mmHg 88%
    03:00 +4°C° 0 mm 1 m/s 706 mmHg 86%
    04:00 +3°C° 0 mm 1 m/s 706 mmHg 85%
    05:00 +3°C° 0 mm 1 m/s 706 mmHg 84%
    06:00 +3°C° 0 mm 1 m/s 706 mmHg 83%
    07:00 +3°C° 0 mm 1 m/s 706 mmHg 82%
    08:00 +4°C° 0 mm 2 m/s 706 mmHg 76%
    09:00 +7°C° 0 mm 2 m/s 706 mmHg 71%
    10:00 +9°C° 0 mm 2 m/s 707 mmHg 65%
    11:00 +10°C° 0 mm 3 m/s 707 mmHg 62%
    12:00 +10°C° 0 mm 3 m/s 706 mmHg 58%
    13:00 +11°C° 0 mm 4 m/s 706 mmHg 55%
    14:00 +11°C° 0 mm 4 m/s 705 mmHg 59%
    15:00 +10°C° 0 mm 4 m/s 705 mmHg 62%
    16:00 +10°C° 0 mm 4 m/s 705 mmHg 66%
    17:00 +7°C° 0 mm 4 m/s 704 mmHg 73%
    18:00 +7°C° 0 mm 3 m/s 704 mmHg 80%
    19:00 +5°C° 0 mm 3 m/s 704 mmHg 87%
    20:00 +5°C° 0.1 mm 3 m/s 704 mmHg 88%
    21:00 +4°C° 0.1 mm 3 m/s 704 mmHg 89%
    22:00 +4°C° 0.1 mm 3 m/s 704 mmHg 89%
    23:00 +4°C° 0 mm 3 m/s 703 mmHg 90%
    Arată mai mult